STARLINK-35800, 66291

Orbit data source: Space-Track

STARLINK-35800, 66291 is a payload satellite owned by SpaceX/Seattle (US) in LEO that was launched on Fri, 31 Oct 2025 UTC via an FALCON 9 launch vehicle from the Air Force Western Test Range (AFWTR). Payload-class satellites include a variety of spacecraft equipped with specific instruments for various scientific and technological missions. These include communications satellites like Starlink; space stations such as the ISS; scientific satellites like the Hubble; Earth observation satellites from companies like Planet Labs, Umbra, and HawkEye 360; GPS; miniature CubeSats for education and research; and military/defense satellites.

Loading next visibility...
Identifier
66291, 2025-247AC
Orbit
LEO
Country
Flag of USUS
Related business
Manufacturer
SpaceX/Seattle
Mission
Operational Commercial Communications
Bus & Motor
STARLINK V2MO, Unknown motor
Mass
575 kg wet, ~530 kg dry
Launch date (UTC)
2025-10-31 (8 months ago)
Launch vehicle
FALCON 9
Launch site
Air Force Western Test Range (AFWTR)
Object type
Payload
Rocket body
Debris
Shape & HBR
Box + 2 Pan, 17.7 m
Radar Cross Section
36.964 m², Large (>1 m²)

Expand to show TLE details & history
Last TLE update: 22 hours ago

TLE from 22 hours ago
0 STARLINK-35800
1 66291U 25247AC  26170.91845544  .00027444  00000-0  81993-3 0  9994
2 66291  53.1584  74.5902 0001481 109.1650 250.9513 15.34418562 36750
Epoch: 2026-06-19T22:02Z
TLE epoch observation values (Epoch: 2026-06-19T22:02:34.550Z)
Latitude
Longitude
-164.19429°
Altitude
463.88 km
Speed
7.636 km/s
True Right ascension
04h 58m 21s
True Declination
0° 00' 00"
Sunlit
Object was in daylight at epoch
Visualization orbit readout
Latitude
Unknown
Longitude
Unknown
Altitude
Unknown
Speed
Unknown
Apparent Right ascension
Unknown
Apparent Declination
Unknown
Sunlit
N/A
Visualization observer readout
Local Sidereal Time
07:16:47
Azimuth
Unknown
Elevation
Unknown
Doppler factor
Unknown
Orbital elements
Apogee altitude
463.918 km
Perigee altitude
461.892 km
Semi-major axis
6,841.042 km
Eccentricity
0.00015
Inclination
53.1584°
RAAN
74.5902°
Arg. of periapsis
109.165°
True anomaly
250.93526°
Mean anomaly
250.9513°
Eccentric anomaly
250.94328°
Mean motion
3.83583 °/min
Orbital period
93.85 mins
BSTAR
0.00081993
Loading maneuver chart data...
Computing Atmospheric mass density...
Loading historical data...
Loading historical data...
Loading historical data...
Loading historical data...
Loading historical data...
Loading historical data...
Loading historical data...

Documentation

Showing up to 5 results
|